sat.trackr.live / text

‹ back to catalog

STARLINK-33995

NORAD 63706 · 2025-087K

PAYLOAD ACTIVE UNKNOWN

§ Identity

Operator
Country
US
Launch date
2025-04-28
Launch site
AFWTR
Launch vehicle
Mass (kg)
RCS (m²)

Purposes: comms

External: N2YO · Heavens-Above · Gunter

§ Orbital elements

Epoch: 2026-05-24T15:21:08.380512Z

Period
94.11 min
Inclination
53.1586°
Eccentricity
0.0001165
Mean motion
15.30171175 rev/d
Perigee alt
474.5 km
Apogee alt
476.1 km
Semi-major
6,853.4 km
B*
7.8061e-4
RAAN
227.0765°
Arg perigee
83.1026°
Mean anomaly
277.0107°
Rev number
6,082

§ Raw data

STARLINK-339951 63706U 25087K   26144.63968033  .00022811  00000+0  78061-3 0  99972 63706  53.1586 227.0765 0001165  83.1026 277.0107 15.30171175 60825

JSON: /api/v1/satellites/63706 · /tle

For live sub-satellite position, see the globe view (requires WebGL).

§ Visibility from observer

Set your observer location to see the next 7 days of passes ≥ 10°. The values pass through the URL so the page stays shareable.

No JS? Fill the form by hand. The geolocation button needs JavaScript.